Погода в Махадзанге

Мадагаскар     15°42′33″S   46°19′12″E
темп.,
°C
ветер,
м/с
пор.,
м/с
влажн.,
%
обл.,
%
осадки,
мм/ч
давл.,
гПа
погр.,
м
10 августа, ср
ср1000:00+23вюв713550 0.0 1019731
03:00+21вюв713641 0.0 1018698
06:00+21вюв613634 0.0 1019649
09:00+24вюв810460 0.0 10201006
12:00+29юв57330 0.0 10171067
15:00+30ссз15330 0.0 10141427
18:00+26юв1116521 0.0 1016736
21:00+23вюв914540 0.0 10191029
11 августа, чт
чт1100:00+22вюв1015550 0.0 10191017
03:00+21юв814570 0.0 1018965
06:00+20юв714605 0.0 1019828
09:00+24юв913510 0.0 10201322
12:00+28вюв79400 0.0 10181062
15:00+30юв68350 0.0 10151349
18:00+28вюв914424 0.0 1016598
21:00+24вюв914510 0.0 1019916
12 августа, пт
пт1200:00+22вюв914591 0.0 10191015
03:00+21юв814620 0.0 1018922
06:00+21вюв713620 0.0 1019822
09:00+25вюв912490 0.0 10201272
12:00+29вюв69391 0.0 10171129
15:00+30всв25385 0.0 10141428
18:00+27ссз225098 0.0 101528
21:00+26в7124361 0.0 1018816
13 августа, сб
сб1300:00+23вюв711576 0.0 1018667
03:00+21вюв6116317 0.0 1017636
06:00+21вюв61165100 0.0 1017630
09:00+25вюв61051100 0.0 10181106
12:00+29в463917 0.0 10161166
15:00+29ссз554681 0.0 10131023
18:00+24ссз467216 0.0 1014188
21:00+22в237975 0.5 101795
14 августа, вс
вс1400:00+23в613635 0.4 1017678
03:00+21в49717 0.4 1015393
06:00+20вюв47754 0.0 1016307
09:00+25в58565 0.0 1018825
12:00+29ссв244478 0.0 1015999
15:00+27сз525355 0.0 1012567
18:00+24зсз577346 0.0 1013235
21:00+23юв237933 0.0 1016119